| time (UTC) | temp F | wind direction | speed MPH | gust MPH | rain 1hr in | rain 24hr in | rain mn in | humidity % | barometer mb |
| 20260901115001 | 71 | 265 | 2.0 | 0.0 | 0.00 | 0.00 | 0.00 | 49 | 1020.7 |
| 20260901114502 | 71 | 257 | 10.0 | 0.0 | 0.00 | 0.00 | 0.00 | 49 | 1020.7 |
| 20260901114002 | 71 | 224 | 9.0 | 0.0 | 0.00 | 0.00 | 0.00 | 48 | 1020.7 |
| 20260901113502 | 70 | 281 | 11.0 | 0.0 | 0.00 | 0.00 | 0.00 | 50 | 1020.7 |
| 20260901113002 | 71 | 285 | 9.0 | 0.0 | 0.00 | 0.00 | 0.00 | 47 | 1020.7 |
| 20260901112501 | 71 | 250 | 4.0 | 0.0 | 0.00 | 0.00 | 0.00 | 51 | 1020.8 |
| 20260901112002 | 71 | 241 | 9.0 | 0.0 | 0.00 | 0.00 | 0.00 | 50 | 1020.8 |
| 20260901111502 | 71 | 256 | 8.0 | 0.0 | 0.00 | 0.00 | 0.00 | 49 | 1020.8 |
| 20260901111002 | 71 | 215 | 4.0 | 0.0 | 0.00 | 0.00 | 0.00 | 50 | 1020.9 |
| 20260901110501 | 70 | 261 | 2.0 | 0.0 | 0.00 | 0.00 | 0.00 | 52 | 1021.0 |
| 20260901110004 | 70 | 244 | 9.0 | 0.0 | 0.00 | 0.00 | 0.00 | 52 | 1020.8 |
| 20260901105502 | 70 | 243 | 6.0 | 0.0 | 0.00 | 0.00 | 0.00 | 55 | 1020.8 |
| 20260901105002 | 70 | 246 | 8.0 | 0.0 | 0.00 | 0.00 | 0.00 | 57 | 1020.9 |
| 20260901104503 | 71 | 297 | 6.0 | 0.0 | 0.00 | 0.00 | 0.00 | 55 | 1020.8 |
| 20260901104001 | 69 | 248 | 8.0 | 0.0 | 0.00 | 0.00 | 0.00 | 55 | 1020.8 |
| 20260901103502 | 70 | 238 | 5.0 | 0.0 | 0.00 | 0.00 | 0.00 | 54 | 1020.8 |
| 20260901103001 | 69 | 301 | 6.0 | 0.0 | 0.00 | 0.00 | 0.00 | 53 | 1021.0 |
| 20260901102502 | 69 | 253 | 4.0 | 0.0 | 0.00 | 0.00 | 0.00 | 55 | 1021.0 |
| 20260901102001 | 70 | 294 | 7.0 | 0.0 | 0.00 | 0.00 | 0.00 | 55 | 1020.9 |
| 20260901101502 | 70 | 242 | 4.0 | 0.0 | 0.00 | 0.00 | 0.00 | 56 | 1021.0 |
| 20260901101002 | 70 | 243 | 6.0 | 0.0 | 0.00 | 0.00 | 0.00 | 55 | 1021.0 |
| 20260901100501 | 69 | 208 | 5.0 | 0.0 | 0.00 | 0.00 | 0.00 | 55 | 1021.1 |
| 20260901100002 | 70 | 252 | 8.0 | 0.0 | 0.00 | 0.00 | 0.00 | 55 | 1021.0 |
| 20260901095501 | 69 | 215 | 6.0 | 0.0 | 0.00 | 0.00 | 0.00 | 57 | 1021.1 |
| 20260901095002 | 69 | 293 | 8.0 | 0.0 | 0.00 | 0.00 | 0.00 | 59 | 1021.2 |
| 20260901094501 | 69 | 265 | 6.0 | 0.0 | 0.00 | 0.00 | 0.00 | 56 | 1021.1 |
| 20260901094003 | 68 | 239 | 4.0 | 0.0 | 0.00 | 0.00 | 0.00 | 56 | 1021.2 |
| 20260901093501 | 68 | 237 | 6.0 | 0.0 | 0.00 | 0.00 | 0.00 | 59 | 1021.1 |
| 20260901093001 | 68 | 209 | 3.0 | 0.0 | 0.00 | 0.00 | 0.00 | 58 | 1021.2 |
| 20260901092502 | 69 | 284 | 10.0 | 0.0 | 0.00 | 0.00 | 0.00 | 58 | 1021.1 |
| 20260901092001 | 68 | 251 | 3.0 | 0.0 | 0.00 | 0.00 | 0.00 | 61 | 1021.2 |
| 20260901091502 | 68 | 222 | 2.0 | 0.0 | 0.00 | 0.00 | 0.00 | 61 | 1021.2 |
| 20260901091001 | 68 | 279 | 5.0 | 0.0 | 0.00 | 0.00 | 0.00 | 60 | 1021.2 |
| 20260901090502 | 67 | 285 | 7.0 | 0.0 | 0.00 | 0.00 | 0.00 | 62 | 1021.2 |
| 20260901090001 | 68 | 286 | 7.0 | 0.0 | 0.00 | 0.00 | 0.00 | 62 | 1021.3 |
| 20260901085502 | 67 | 223 | 7.0 | 0.0 | 0.00 | 0.00 | 0.00 | 62 | 1021.2 |
| 20260901085001 | 67 | 235 | 6.0 | 0.0 | 0.00 | 0.00 | 0.00 | 63 | 1021.2 |
| 20260901084501 | 67 | 270 | 7.0 | 0.0 | 0.00 | 0.00 | 0.00 | 62 | 1021.1 |
| 20260901084002 | 67 | 232 | 5.0 | 0.0 | 0.00 | 0.00 | 0.00 | 64 | 1021.2 |
| 20260901083501 | 67 | 233 | 4.0 | 0.0 | 0.00 | 0.00 | 0.00 | 66 | 1021.2 |
| 20260901083002 | 66 | 221 | 5.0 | 0.0 | 0.00 | 0.00 | 0.00 | 68 | 1021.2 |
| 20260901082501 | 66 | 185 | 4.0 | 0.0 | 0.00 | 0.00 | 0.00 | 70 | 1021.2 |
| 20260901082002 | 66 | 205 | 5.0 | 0.0 | 0.00 | 0.00 | 0.00 | 70 | 1021.1 |
| 20260901081501 | 65 | 181 | 4.0 | 0.0 | 0.00 | 0.00 | 0.00 | 69 | 1021.2 |
| 20260901081002 | 66 | 184 | 4.0 | 0.0 | 0.00 | 0.00 | 0.00 | 69 | 1021.0 |
| 20260901080501 | 66 | 0 | 0.0 | 0.0 | 0.00 | 0.00 | 0.00 | 68 | 1021.1 |
| 20260901080002 | 66 | 208 | 5.0 | 0.0 | 0.00 | 0.00 | 0.00 | 68 | 1021.0 |
| 20260901075501 | 66 | 225 | 2.0 | 0.0 | 0.00 | 0.00 | 0.00 | 67 | 1021.0 |
| 20260901075002 | 65 | 198 | 2.0 | 0.0 | 0.00 | 0.00 | 0.00 | 67 | 1021.0 |
| 20260901074501 | 65 | 219 | 6.0 | 0.0 | 0.00 | 0.00 | 0.00 | 68 | 1021.0 |
| 20260901074001 | 64 | 209 | 2.0 | 0.0 | 0.00 | 0.00 | 0.00 | 69 | 1021.0 |
| 20260901073502 | 65 | 229 | 4.0 | 0.0 | 0.00 | 0.00 | 0.00 | 68 | 1021.0 |
| 20260901073003 | 64 | 189 | 2.0 | 0.0 | 0.00 | 0.00 | 0.00 | 70 | 1020.9 |
| 20260901072502 | 64 | 219 | 3.0 | 0.0 | 0.00 | 0.00 | 0.00 | 70 | 1020.9 |
| 20260901072002 | 63 | 201 | 2.0 | 0.0 | 0.00 | 0.00 | 0.00 | 71 | 1020.8 |
| 20260901071502 | 63 | 208 | 4.0 | 0.0 | 0.00 | 0.00 | 0.00 | 71 | 1020.9 |
| 20260901071001 | 62 | 244 | 3.0 | 0.0 | 0.00 | 0.00 | 0.00 | 74 | 1020.9 |
| 20260901070502 | 61 | 207 | 7.0 | 0.0 | 0.00 | 0.00 | 0.00 | 73 | 1020.9 |
| 20260901070001 | 61 | 216 | 4.0 | 0.0 | 0.00 | 0.00 | 0.00 | 73 | 1020.8 |
| 20260901065501 | 61 | 182 | 0.0 | 0.0 | 0.00 | 0.00 | 0.00 | 75 | 1020.9 |
| 20260901065002 | 60 | 182 | 3.0 | 0.0 | 0.00 | 0.00 | 0.00 | 76 | 1021.0 |
| 20260901064501 | 60 | 159 | 1.0 | 0.0 | 0.00 | 0.00 | 0.00 | 75 | 1020.9 |
| 20260901064003 | 60 | 95 | 1.0 | 0.0 | 0.00 | 0.00 | 0.00 | 74 | 1020.8 |
| 20260901063501 | 60 | 188 | 1.0 | 0.0 | 0.00 | 0.00 | 0.00 | 75 | 1020.9 |
| 20260901063002 | 59 | 209 | 1.0 | 0.0 | 0.00 | 0.00 | 0.00 | 78 | 1020.8 |
| 20260901062501 | 58 | 138 | 0.0 | 0.0 | 0.00 | 0.00 | 0.00 | 80 | 1020.7 |
| 20260901062002 | 57 | 130 | 1.0 | 0.0 | 0.00 | 0.00 | 0.00 | 80 | 1020.8 |
| 20260901061501 | 57 | 138 | 2.0 | 0.0 | 0.00 | 0.00 | 0.00 | 81 | 1020.8 |
| 20260901061002 | 57 | 131 | 1.0 | 0.0 | 0.00 | 0.00 | 0.00 | 82 | 1020.9 |
| 20260901060501 | 56 | 140 | 1.0 | 0.0 | 0.00 | 0.00 | 0.00 | 83 | 1020.8 |
| 20260901060001 | 56 | 109 | 0.0 | 0.0 | 0.00 | 0.00 | 0.00 | 82 | 1020.8 |
| 20260901055502 | 57 | 81 | 1.0 | 0.0 | 0.00 | 0.00 | 0.00 | 80 | 1020.7 |
| 20260901055001 | 57 | 69 | 2.0 | 0.0 | 0.00 | 0.00 | 0.00 | 78 | 1020.7 |
| 20260901054502 | 57 | 60 | 1.0 | 0.0 | 0.00 | 0.00 | 0.00 | 80 | 1020.7 |
| 20260901054001 | 56 | 0 | 0.0 | 0.0 | 0.00 | 0.00 | 0.00 | 81 | 1020.7 |
| 20260901053502 | 56 | 60 | 2.0 | 0.0 | 0.00 | 0.00 | 0.00 | 81 | 1020.6 |
| 20260901053001 | 57 | 64 | 2.0 | 0.0 | 0.00 | 0.00 | 0.00 | 78 | 1020.6 |
| 20260901052501 | 57 | 0 | 0.0 | 0.0 | 0.00 | 0.00 | 0.00 | 78 | 1020.7 |
| 20260901052001 | 57 | 0 | 0.0 | 0.0 | 0.00 | 0.00 | 0.00 | 77 | 1020.6 |
| 20260901051501 | 56 | 102 | 1.0 | 0.0 | 0.00 | 0.00 | 0.00 | 79 | 1020.7 |
| 20260901051002 | 57 | 346 | 1.0 | 0.0 | 0.00 | 0.00 | 0.00 | 79 | 1020.6 |
| 20260901050501 | 56 | 338 | 2.0 | 0.0 | 0.00 | 0.00 | 0.00 | 81 | 1020.6 |
| 20260901050002 | 55 | 314 | 2.0 | 0.0 | 0.00 | 0.00 | 0.00 | 81 | 1020.6 |
| 20260901045501 | 56 | 351 | 2.0 | 0.0 | 0.00 | 0.00 | 0.00 | 79 | 1020.6 |
| 20260901045002 | 56 | 30 | 1.0 | 0.0 | 0.00 | 0.00 | 0.00 | 79 | 1020.7 |
| 20260901044501 | 56 | 31 | 0.0 | 0.0 | 0.00 | 0.00 | 0.00 | 79 | 1020.6 |
| 20260901044002 | 56 | 0 | 0.0 | 0.0 | 0.00 | 0.00 | 0.00 | 78 | 1020.6 |
| 20260901043501 | 56 | 279 | 0.0 | 0.0 | 0.00 | 0.00 | 0.00 | 78 | 1020.7 |
| 20260901043001 | 55 | 148 | 1.0 | 0.0 | 0.00 | 0.00 | 0.00 | 79 | 1020.7 |
| 20260901042502 | 57 | 0 | 0.0 | 0.0 | 0.00 | 0.00 | 0.00 | 76 | 1020.6 |
| 20260901042001 | 56 | 295 | 1.0 | 0.0 | 0.00 | 0.00 | 0.00 | 79 | 1020.6 |
| 20260901041502 | 55 | 313 | 2.0 | 0.0 | 0.00 | 0.00 | 0.00 | 82 | 1020.5 |
| 20260901041001 | 55 | 314 | 2.0 | 0.0 | 0.00 | 0.00 | 0.00 | 83 | 1020.5 |
| 20260901040502 | 54 | 318 | 0.0 | 0.0 | 0.00 | 0.00 | 0.00 | 86 | 1020.4 |
| 20260901040002 | 53 | 309 | 2.0 | 0.0 | 0.00 | 0.00 | 0.00 | 85 | 1020.5 |
| 20260901035501 | 55 | 347 | 2.0 | 0.0 | 0.00 | 0.00 | 0.00 | 82 | 1020.6 |
| 20260901035002 | 54 | 244 | 0.0 | 0.0 | 0.00 | 0.00 | 0.00 | 83 | 1020.4 |
| 20260901034502 | 55 | 181 | 2.0 | 0.0 | 0.00 | 0.00 | 0.00 | 79 | 1020.4 |
| 20260901034001 | 56 | 134 | 2.0 | 0.0 | 0.00 | 0.00 | 0.00 | 78 | 1020.4 |
| 20260901033502 | 56 | 78 | 2.0 | 0.0 | 0.00 | 0.00 | 0.00 | 77 | 1020.5 |
| 20260901033003 | 57 | 48 | 1.0 | 0.0 | 0.00 | 0.00 | 0.00 | 77 | 1020.4 |
| 20260901032501 | 57 | 28 | 2.0 | 0.0 | 0.00 | 0.00 | 0.00 | 77 | 1020.5 |
| 20260901032002 | 56 | 355 | 2.0 | 0.0 | 0.00 | 0.00 | 0.00 | 77 | 1020.4 |
| 20260901031502 | 56 | 334 | 1.0 | 0.0 | 0.00 | 0.00 | 0.00 | 79 | 1020.5 |
| 20260901031001 | 56 | 334 | 3.0 | 0.0 | 0.00 | 0.00 | 0.00 | 79 | 1020.5 |
| 20260901030502 | 56 | 349 | 3.0 | 0.0 | 0.00 | 0.00 | 0.00 | 77 | 1020.6 |
| 20260901030002 | 57 | 347 | 0.0 | 0.0 | 0.00 | 0.00 | 0.00 | 77 | 1020.7 |
| 20260901025501 | 56 | 351 | 1.0 | 0.0 | 0.00 | 0.00 | 0.00 | 78 | 1020.6 |
| 20260901025002 | 56 | 340 | 1.0 | 0.0 | 0.00 | 0.00 | 0.00 | 77 | 1020.7 |
| 20260901024502 | 56 | 9 | 1.0 | 0.0 | 0.00 | 0.00 | 0.00 | 78 | 1020.6 |
| 20260901024001 | 56 | 345 | 1.0 | 0.0 | 0.00 | 0.00 | 0.00 | 79 | 1020.7 |
| 20260901023502 | 55 | 334 | 1.0 | 0.0 | 0.00 | 0.00 | 0.00 | 80 | 1020.7 |
| 20260901023002 | 56 | 36 | 1.0 | 0.0 | 0.00 | 0.00 | 0.00 | 79 | 1020.7 |
| 20260901022501 | 55 | 44 | 2.0 | 0.0 | 0.00 | 0.00 | 0.00 | 80 | 1020.6 |
| 20260901022002 | 56 | 43 | 2.0 | 0.0 | 0.00 | 0.00 | 0.00 | 79 | 1020.7 |
| 20260901021502 | 56 | 37 | 2.0 | 0.0 | 0.00 | 0.00 | 0.00 | 78 | 1020.6 |
| 20260901021001 | 56 | 86 | 2.0 | 0.0 | 0.00 | 0.00 | 0.00 | 79 | 1020.6 |
| 20260901020502 | 56 | 111 | 2.0 | 0.0 | 0.00 | 0.00 | 0.00 | 79 | 1020.6 |
| 20260901020001 | 57 | 148 | 2.0 | 0.0 | 0.00 | 0.00 | 0.00 | 74 | 1020.6 |
| 20260901015501 | 58 | 297 | 2.0 | 0.0 | 0.00 | 0.00 | 0.00 | 73 | 1020.7 |
| 20260901015002 | 57 | 323 | 2.0 | 0.0 | 0.00 | 0.00 | 0.00 | 75 | 1020.7 |
| 20260901014501 | 56 | 324 | 1.0 | 0.0 | 0.00 | 0.00 | 0.00 | 78 | 1020.7 |
| 20260901014001 | 56 | 69 | 2.0 | 0.0 | 0.00 | 0.00 | 0.00 | 78 | 1020.6 |
| 20260901013502 | 59 | 94 | 2.0 | 0.0 | 0.00 | 0.00 | 0.00 | 70 | 1020.7 |
| 20260901013002 | 59 | 268 | 2.0 | 0.0 | 0.00 | 0.00 | 0.00 | 69 | 1020.6 |
| 20260901012501 | 60 | 290 | 3.0 | 0.0 | 0.00 | 0.00 | 0.00 | 69 | 1020.7 |
| 20260901012002 | 60 | 289 | 2.0 | 0.0 | 0.00 | 0.00 | 0.00 | 68 | 1020.7 |
| 20260901011502 | 59 | 285 | 3.0 | 0.0 | 0.00 | 0.00 | 0.00 | 70 | 1020.6 |
| 20260901011001 | 58 | 260 | 3.0 | 0.0 | 0.00 | 0.00 | 0.00 | 73 | 1020.7 |
| 20260901010502 | 58 | 221 | 1.0 | 0.0 | 0.00 | 0.00 | 0.00 | 73 | 1020.7 |
| 20260901010002 | 57 | 159 | 0.0 | 0.0 | 0.00 | 0.00 | 0.00 | 77 | 1020.7 |
| 20260901005501 | 56 | 115 | 1.0 | 0.0 | 0.00 | 0.00 | 0.00 | 79 | 1020.7 |
| 20260901005002 | 57 | 131 | 5.0 | 0.0 | 0.00 | 0.00 | 0.00 | 76 | 1020.5 |
| 20260901004502 | 60 | 0 | 0.0 | 0.0 | 0.00 | 0.00 | 0.00 | 66 | 1020.6 |
| 20260901004002 | 60 | 229 | 2.0 | 0.0 | 0.00 | 0.00 | 0.00 | 66 | 1020.6 |
| 20260901003502 | 61 | 0 | 0.0 | 0.0 | 0.00 | 0.00 | 0.00 | 65 | 1020.6 |
| 20260901003002 | 61 | 257 | 4.0 | 0.0 | 0.00 | 0.00 | 0.00 | 65 | 1020.6 |
| 20260901002501 | 61 | 286 | 5.0 | 0.0 | 0.00 | 0.00 | 0.00 | 65 | 1020.6 |
| 20260901002002 | 61 | 287 | 4.0 | 0.0 | 0.00 | 0.00 | 0.00 | 65 | 1020.6 |
| 20260901001502 | 61 | 297 | 2.0 | 0.0 | 0.00 | 0.00 | 0.00 | 64 | 1020.6 |
| 20260901001001 | 61 | 274 | 3.0 | 0.0 | 0.00 | 0.00 | 0.00 | 65 | 1020.7 |
| 20260901000502 | 61 | 274 | 4.0 | 0.0 | 0.00 | 0.00 | 0.00 | 65 | 1020.6 |
| 20260901000002 | 61 | 263 | 2.0 | 0.0 | 0.00 | 0.00 | 0.00 | 65 | 1020.7 |
| 20260831235501 | 61 | 263 | 3.0 | 0.0 | 0.00 | 0.00 | 0.00 | 65 | 1020.7 |
| 20260831235002 | 61 | 281 | 2.0 | 0.0 | 0.00 | 0.00 | 0.00 | 64 | 1020.6 |
| 20260831234502 | 61 | 284 | 4.0 | 0.0 | 0.00 | 0.00 | 0.00 | 63 | 1020.5 |
| 20260831234001 | 62 | 251 | 2.0 | 0.0 | 0.00 | 0.00 | 0.00 | 63 | 1020.6 |
| 20260831233501 | 62 | 289 | 4.0 | 0.0 | 0.00 | 0.00 | 0.00 | 62 | 1020.6 |
| 20260831233002 | 62 | 258 | 2.0 | 0.0 | 0.00 | 0.00 | 0.00 | 62 | 1020.6 |
| 20260831232501 | 62 | 260 | 2.0 | 0.0 | 0.00 | 0.00 | 0.00 | 62 | 1020.6 |
| 20260831232002 | 62 | 260 | 5.0 | 0.0 | 0.00 | 0.00 | 0.00 | 62 | 1020.6 |
| 20260831231503 | 62 | 272 | 5.0 | 0.0 | 0.00 | 0.00 | 0.00 | 62 | 1020.5 |
| 20260831231001 | 61 | 271 | 2.0 | 0.0 | 0.00 | 0.00 | 0.00 | 64 | 1020.5 |
| 20260831230502 | 61 | 249 | 2.0 | 0.0 | 0.00 | 0.00 | 0.00 | 63 | 1020.4 |
| 20260831230002 | 61 | 266 | 2.0 | 0.0 | 0.00 | 0.00 | 0.00 | 63 | 1020.5 |
| 20260831225501 | 61 | 258 | 1.0 | 0.0 | 0.00 | 0.00 | 0.00 | 64 | 1020.4 |
| 20260831225002 | 61 | 243 | 2.0 | 0.0 | 0.00 | 0.00 | 0.00 | 63 | 1020.4 |
| 20260831224502 | 61 | 259 | 3.0 | 0.0 | 0.00 | 0.00 | 0.00 | 63 | 1020.5 |
| 20260831224001 | 61 | 240 | 2.0 | 0.0 | 0.00 | 0.00 | 0.00 | 62 | 1020.4 |
| 20260831223502 | 61 | 242 | 1.0 | 0.0 | 0.00 | 0.00 | 0.00 | 62 | 1020.4 |
| 20260831223002 | 62 | 244 | 1.0 | 0.0 | 0.00 | 0.00 | 0.00 | 61 | 1020.5 |
| 20260831222501 | 62 | 241 | 3.0 | 0.0 | 0.00 | 0.00 | 0.00 | 62 | 1020.5 |
| 20260831222002 | 61 | 248 | 1.0 | 0.0 | 0.00 | 0.00 | 0.00 | 63 | 1020.5 |
| 20260831221503 | 61 | 269 | 1.0 | 0.0 | 0.00 | 0.00 | 0.00 | 62 | 1020.4 |
| 20260831221001 | 62 | 243 | 2.0 | 0.0 | 0.00 | 0.00 | 0.00 | 62 | 1020.4 |
| 20260831220501 | 62 | 251 | 2.0 | 0.0 | 0.00 | 0.00 | 0.00 | 62 | 1020.4 |
| 20260831220002 | 61 | 236 | 2.0 | 0.0 | 0.00 | 0.00 | 0.00 | 62 | 1020.4 |
| 20260831215501 | 61 | 273 | 3.0 | 0.0 | 0.00 | 0.00 | 0.00 | 62 | 1020.4 |
| 20260831215002 | 62 | 277 | 3.0 | 0.0 | 0.00 | 0.00 | 0.00 | 61 | 1020.3 |
| 20260831214502 | 62 | 231 | 4.0 | 0.0 | 0.00 | 0.00 | 0.00 | 60 | 1020.2 |
| 20260831214001 | 62 | 261 | 3.0 | 0.0 | 0.00 | 0.00 | 0.00 | 59 | 1020.3 |
| 20260831213502 | 62 | 298 | 1.0 | 0.0 | 0.00 | 0.00 | 0.00 | 60 | 1020.3 |
| 20260831213002 | 62 | 251 | 1.0 | 0.0 | 0.00 | 0.00 | 0.00 | 60 | 1020.3 |
| 20260831212501 | 62 | 269 | 1.0 | 0.0 | 0.00 | 0.00 | 0.00 | 61 | 1020.2 |
| 20260831212001 | 61 | 239 | 4.0 | 0.0 | 0.00 | 0.00 | 0.00 | 62 | 1020.2 |
| 20260831211502 | 62 | 217 | 5.0 | 0.0 | 0.00 | 0.00 | 0.00 | 60 | 1020.2 |
| 20260831211001 | 64 | 232 | 3.0 | 0.0 | 0.00 | 0.00 | 0.00 | 55 | 1020.1 |
| 20260831210503 | 64 | 305 | 4.0 | 0.0 | 0.00 | 0.00 | 0.00 | 57 | 1020.2 |
| 20260831210002 | 64 | 277 | 4.0 | 0.0 | 0.00 | 0.00 | 0.00 | 55 | 1020.2 |
| 20260831205501 | 64 | 253 | 1.0 | 0.0 | 0.00 | 0.00 | 0.00 | 55 | 1020.2 |
| 20260831205002 | 64 | 265 | 2.0 | 0.0 | 0.00 | 0.00 | 0.00 | 54 | 1020.0 |
| 20260831204502 | 64 | 268 | 1.0 | 0.0 | 0.00 | 0.00 | 0.00 | 55 | 1020.1 |
| 20260831204001 | 64 | 275 | 3.0 | 0.0 | 0.00 | 0.00 | 0.00 | 54 | 1020.0 |
| 20260831203502 | 65 | 225 | 2.0 | 0.0 | 0.00 | 0.00 | 0.00 | 53 | 1019.8 |
| 20260831203002 | 65 | 231 | 2.0 | 0.0 | 0.00 | 0.00 | 0.00 | 53 | 1019.9 |
| 20260831202501 | 64 | 284 | 2.0 | 0.0 | 0.00 | 0.00 | 0.00 | 56 | 1019.8 |
| 20260831202002 | 65 | 291 | 0.0 | 0.0 | 0.00 | 0.00 | 0.00 | 54 | 1019.8 |
| 20260831201502 | 64 | 271 | 2.0 | 0.0 | 0.00 | 0.00 | 0.00 | 54 | 1019.8 |
| 20260831201001 | 64 | 272 | 1.0 | 0.0 | 0.00 | 0.00 | 0.00 | 56 | 1019.7 |
| 20260831200502 | 64 | 237 | 2.0 | 0.0 | 0.00 | 0.00 | 0.00 | 56 | 1019.7 |
| 20260831200002 | 64 | 240 | 3.0 | 0.0 | 0.00 | 0.00 | 0.00 | 55 | 1019.8 |
| 20260831195501 | 64 | 230 | 3.0 | 0.0 | 0.00 | 0.00 | 0.00 | 54 | 1019.7 |
| 20260831195002 | 65 | 239 | 3.0 | 0.0 | 0.00 | 0.00 | 0.00 | 53 | 1019.7 |
| 20260831194502 | 66 | 240 | 2.0 | 0.0 | 0.00 | 0.00 | 0.00 | 52 | 1019.7 |
| 20260831194001 | 66 | 281 | 2.0 | 0.0 | 0.00 | 0.00 | 0.00 | 52 | 1019.6 |
| 20260831193501 | 66 | 266 | 2.0 | 0.0 | 0.00 | 0.00 | 0.00 | 53 | 1019.6 |
| 20260831193002 | 66 | 298 | 2.0 | 0.0 | 0.00 | 0.00 | 0.00 | 52 | 1019.6 |
| 20260831192501 | 66 | 276 | 4.0 | 0.0 | 0.00 | 0.00 | 0.00 | 52 | 1019.5 |
| 20260831192002 | 66 | 248 | 1.0 | 0.0 | 0.00 | 0.00 | 0.00 | 52 | 1019.4 |
| 20260831191502 | 66 | 269 | 1.0 | 0.0 | 0.00 | 0.00 | 0.00 | 52 | 1019.4 |
| 20260831191001 | 66 | 312 | 4.0 | 0.0 | 0.00 | 0.00 | 0.00 | 52 | 1019.3 |
| 20260831190501 | 67 | 346 | 4.0 | 0.0 | 0.00 | 0.00 | 0.00 | 52 | 1019.4 |
| 20260831190002 | 67 | 337 | 8.0 | 0.0 | 0.00 | 0.00 | 0.00 | 51 | 1019.2 |
| 20260831185502 | 67 | 334 | 12.0 | 0.0 | 0.00 | 0.00 | 0.00 | 50 | 1019.0 |
| 20260831185001 | 67 | 332 | 11.0 | 0.0 | 0.00 | 0.00 | 0.00 | 50 | 1019.0 |
| 20260831184502 | 68 | 339 | 9.0 | 0.0 | 0.00 | 0.00 | 0.00 | 49 | 1018.9 |
| 20260831184002 | 68 | 329 | 8.0 | 0.0 | 0.00 | 0.00 | 0.00 | 49 | 1018.8 |
| 20260831183502 | 68 | 301 | 6.0 | 0.0 | 0.00 | 0.00 | 0.00 | 49 | 1018.6 |
| 20260831183002 | 69 | 304 | 6.0 | 0.0 | 0.00 | 0.00 | 0.00 | 48 | 1018.5 |
| 20260831182501 | 69 | 305 | 8.0 | 0.0 | 0.00 | 0.00 | 0.00 | 48 | 1018.3 |
| 20260831182002 | 69 | 276 | 4.0 | 0.0 | 0.00 | 0.00 | 0.00 | 50 | 1018.3 |
| 20260831181501 | 69 | 292 | 5.0 | 0.0 | 0.00 | 0.00 | 0.00 | 48 | 1018.2 |
| 20260831181002 | 69 | 296 | 3.0 | 0.0 | 0.00 | 0.00 | 0.00 | 49 | 1018.1 |
| 20260831180501 | 69 | 297 | 7.0 | 0.0 | 0.00 | 0.00 | 0.00 | 49 | 1018.0 |
| 20260831180002 | 70 | 282 | 6.0 | 0.0 | 0.00 | 0.00 | 0.00 | 49 | 1018.0 |
| 20260831175502 | 70 | 291 | 4.0 | 0.0 | 0.00 | 0.00 | 0.00 | 49 | 1017.9 |
| 20260831175002 | 70 | 295 | 8.0 | 0.0 | 0.00 | 0.00 | 0.00 | 48 | 1017.8 |
| 20260831174502 | 71 | 292 | 7.0 | 0.0 | 0.00 | 0.00 | 0.00 | 47 | 1017.5 |
| 20260831174001 | 71 | 274 | 9.0 | 0.0 | 0.00 | 0.00 | 0.00 | 48 | 1017.5 |
| 20260831173502 | 71 | 285 | 7.0 | 0.0 | 0.00 | 0.00 | 0.00 | 47 | 1017.4 |
| 20260831173001 | 71 | 255 | 4.0 | 0.0 | 0.00 | 0.00 | 0.00 | 47 | 1017.4 |
| 20260831172502 | 71 | 295 | 2.0 | 0.0 | 0.00 | 0.00 | 0.00 | 47 | 1017.5 |
| 20260831172001 | 71 | 290 | 6.0 | 0.0 | 0.00 | 0.00 | 0.00 | 47 | 1017.4 |
| 20260831171501 | 72 | 288 | 5.0 | 0.0 | 0.00 | 0.00 | 0.00 | 47 | 1017.4 |
| 20260831171002 | 72 | 284 | 7.0 | 0.0 | 0.00 | 0.00 | 0.00 | 48 | 1017.3 |
| 20260831170501 | 72 | 242 | 3.0 | 0.0 | 0.00 | 0.00 | 0.00 | 47 | 1017.2 |
| 20260831170002 | 72 | 276 | 7.0 | 0.0 | 0.00 | 0.00 | 0.00 | 47 | 1017.2 |
| 20260831165502 | 72 | 258 | 4.0 | 0.0 | 0.00 | 0.00 | 0.00 | 47 | 1017.2 |
| 20260831165002 | 72 | 273 | 4.0 | 0.0 | 0.00 | 0.00 | 0.00 | 46 | 1017.0 |
| 20260831164502 | 72 | 267 | 2.0 | 0.0 | 0.00 | 0.00 | 0.00 | 47 | 1017.1 |
| 20260831164002 | 72 | 265 | 1.0 | 0.0 | 0.00 | 0.00 | 0.00 | 46 | 1017.2 |
| 20260831163501 | 72 | 243 | 2.0 | 0.0 | 0.00 | 0.00 | 0.00 | 46 | 1017.1 |
| 20260831163002 | 73 | 277 | 5.0 | 0.0 | 0.00 | 0.00 | 0.00 | 47 | 1017.1 |
| 20260831162502 | 72 | 287 | 7.0 | 0.0 | 0.00 | 0.00 | 0.00 | 46 | 1017.1 |
| 20260831162002 | 73 | 240 | 3.0 | 0.0 | 0.00 | 0.00 | 0.00 | 46 | 1017.0 |
| 20260831161502 | 72 | 242 | 4.0 | 0.0 | 0.00 | 0.00 | 0.00 | 46 | 1017.0 |
| 20260831161002 | 72 | 254 | 5.0 | 0.0 | 0.00 | 0.00 | 0.00 | 46 | 1017.0 |
| 20260831160502 | 72 | 290 | 12.0 | 0.0 | 0.00 | 0.00 | 0.00 | 45 | 1016.9 |
| 20260831160002 | 73 | 273 | 8.0 | 0.0 | 0.00 | 0.00 | 0.00 | 45 | 1016.9 |
| 20260831155502 | 73 | 275 | 9.0 | 0.0 | 0.00 | 0.00 | 0.00 | 44 | 1016.7 |
| 20260831155001 | 73 | 282 | 11.0 | 0.0 | 0.00 | 0.00 | 0.00 | 44 | 1016.8 |
| 20260831154502 | 73 | 243 | 4.0 | 0.0 | 0.00 | 0.00 | 0.00 | 44 | 1016.8 |
| 20260831154002 | 73 | 272 | 8.0 | 0.0 | 0.00 | 0.00 | 0.00 | 43 | 1016.7 |
| 20260831153502 | 73 | 281 | 8.0 | 0.0 | 0.00 | 0.00 | 0.00 | 43 | 1016.7 |
| 20260831153002 | 73 | 290 | 9.0 | 0.0 | 0.00 | 0.00 | 0.00 | 43 | 1016.8 |
| 20260831152502 | 73 | 262 | 5.0 | 0.0 | 0.00 | 0.00 | 0.00 | 44 | 1016.8 |
| 20260831152002 | 73 | 226 | 6.0 | 0.0 | 0.00 | 0.00 | 0.00 | 45 | 1016.9 |
| 20260831151502 | 73 | 269 | 7.0 | 0.0 | 0.00 | 0.00 | 0.00 | 43 | 1016.9 |
| 20260831151002 | 73 | 279 | 8.0 | 0.0 | 0.00 | 0.00 | 0.00 | 43 | 1016.9 |
| 20260831150503 | 73 | 273 | 13.0 | 0.0 | 0.00 | 0.00 | 0.00 | 44 | 1017.0 |
| 20260831150002 | 73 | 295 | 8.0 | 0.0 | 0.00 | 0.00 | 0.00 | 42 | 1017.0 |
| 20260831145501 | 73 | 255 | 4.0 | 0.0 | 0.00 | 0.00 | 0.00 | 44 | 1017.1 |
| 20260831145002 | 73 | 273 | 4.0 | 0.0 | 0.00 | 0.00 | 0.00 | 42 | 1016.9 |
| 20260831144501 | 73 | 249 | 6.0 | 0.0 | 0.00 | 0.00 | 0.00 | 42 | 1016.9 |
| 20260831144001 | 73 | 296 | 8.0 | 0.0 | 0.00 | 0.00 | 0.00 | 43 | 1017.0 |
| 20260831143502 | 73 | 250 | 4.0 | 0.0 | 0.00 | 0.00 | 0.00 | 46 | 1016.9 |
| 20260831143001 | 73 | 255 | 8.0 | 0.0 | 0.00 | 0.00 | 0.00 | 45 | 1017.0 |
| 20260831142502 | 72 | 246 | 5.0 | 0.0 | 0.00 | 0.00 | 0.00 | 45 | 1016.9 |
| 20260831142001 | 73 | 311 | 3.0 | 0.0 | 0.00 | 0.00 | 0.00 | 45 | 1017.1 |
| 20260831141502 | 73 | 254 | 10.0 | 0.0 | 0.00 | 0.00 | 0.00 | 47 | 1016.9 |
| 20260831141001 | 73 | 273 | 8.0 | 0.0 | 0.00 | 0.00 | 0.00 | 47 | 1017.1 |
| 20260831140502 | 72 | 263 | 6.0 | 0.0 | 0.00 | 0.00 | 0.00 | 47 | 1017.0 |
| 20260831140001 | 71 | 274 | 8.0 | 0.0 | 0.00 | 0.00 | 0.00 | 47 | 1017.1 |
| 20260831135501 | 71 | 265 | 9.0 | 0.0 | 0.00 | 0.00 | 0.00 | 46 | 1017.2 |
| 20260831135003 | 71 | 260 | 6.0 | 0.0 | 0.00 | 0.00 | 0.00 | 48 | 1017.2 |
| 20260831134501 | 72 | 226 | 9.0 | 0.0 | 0.00 | 0.00 | 0.00 | 48 | 1017.2 |
| 20260831134002 | 71 | 285 | 13.0 | 0.0 | 0.00 | 0.00 | 0.00 | 48 | 1017.3 |
| 20260831133501 | 71 | 251 | 7.0 | 0.0 | 0.00 | 0.00 | 0.00 | 49 | 1017.2 |
| 20260831133002 | 71 | 251 | 9.0 | 0.0 | 0.00 | 0.00 | 0.00 | 48 | 1017.3 |
| 20260831132503 | 71 | 245 | 11.0 | 0.0 | 0.00 | 0.00 | 0.00 | 48 | 1017.2 |
| 20260831132002 | 71 | 297 | 8.0 | 0.0 | 0.00 | 0.00 | 0.00 | 48 | 1017.2 |
| 20260831131501 | 71 | 252 | 12.0 | 0.0 | 0.00 | 0.00 | 0.00 | 49 | 1017.3 |
| 20260831131001 | 71 | 269 | 7.0 | 0.0 | 0.00 | 0.00 | 0.00 | 48 | 1017.4 |
| 20260831130502 | 71 | 294 | 9.0 | 0.0 | 0.00 | 0.00 | 0.00 | 50 | 1017.3 |
| 20260831130001 | 70 | 294 | 3.0 | 0.0 | 0.00 | 0.00 | 0.00 | 48 | 1017.5 |
| 20260831125502 | 71 | 258 | 7.0 | 0.0 | 0.00 | 0.00 | 0.00 | 48 | 1017.5 |
| 20260831125001 | 71 | 262 | 3.0 | 0.0 | 0.00 | 0.00 | 0.00 | 52 | 1017.5 |
| 20260831124502 | 71 | 281 | 4.0 | 0.0 | 0.00 | 0.00 | 0.00 | 51 | 1017.5 |
| 20260831124002 | 71 | 283 | 10.0 | 0.0 | 0.00 | 0.00 | 0.00 | 51 | 1017.4 |
| 20260831123502 | 70 | 289 | 12.0 | 0.0 | 0.00 | 0.00 | 0.00 | 52 | 1017.5 |
| 20260831123001 | 71 | 276 | 8.0 | 0.0 | 0.00 | 0.00 | 0.00 | 52 | 1017.4 |
| 20260831122501 | 71 | 257 | 10.0 | 0.0 | 0.00 | 0.00 | 0.00 | 52 | 1017.4 |
| 20260831122001 | 71 | 293 | 9.0 | 0.0 | 0.00 | 0.00 | 0.00 | 54 | 1017.4 |
| 20260831121501 | 70 | 262 | 3.0 | 0.0 | 0.00 | 0.00 | 0.00 | 54 | 1017.5 |
| 20260831121002 | 70 | 266 | 8.0 | 0.0 | 0.00 | 0.00 | 0.00 | 54 | 1017.5 |
| 20260831120502 | 70 | 255 | 4.0 | 0.0 | 0.00 | 0.00 | 0.00 | 54 | 1017.4 |
| 20260831120003 | 70 | 255 | 9.0 | 0.0 | 0.00 | 0.00 | 0.00 | 52 | 1017.6 |
| 20260831115501 | 70 | 282 | 8.0 | 0.0 | 0.00 | 0.00 | 0.00 | 52 | 1017.6 |